Weather in Luchki

Russia / Vladimir Oblast     56°45′55″N   39°31′53″E
temp.,
°C
wind,
m/s
gust,
m/s
humid.,
%
clouds,
%
prec.,
mm/h
press.,
hPa
HPBL,
m
26 july, mon
mon2600:00+16ssw2452100 0.0 102169
03:00+16w2559100 0.0 1022104
06:00+15wnw23658 0.0 102269
09:00+21w244596 0.0 1022717
12:00+20wsw2455100 0.0 1022333
15:00+25w373859 0.0 10212366
18:00+21w255698 0.0 1020110
21:00+18w236697 0.0 102049
27 july, tue
tue2700:00+18w256313 0.0 1021101
03:00+17w256940 0.0 102197
06:00+16nnw267522 0.0 1021169
09:00+23n24495 0.0 1021613
12:00+27n353444 0.0 10202476
15:00+27wnw3337100 0.0 10192459
18:00+24nw3646100 0.1 1019305
21:00+18se11655 0.2 101911
28 july, wed
wed2800:00+15s118438 1.0 101911
03:00+15w11865 1.4 101811
06:00+16sw24885 0.1 101780
09:00+23sw22555 0.1 1016483
12:00+28ssw454128 0.0 10141702
15:00+28ssw3443100 0.0 10121743
18:00+21w3483100 1.9 1011192
21:00+17nne1298100 5.8 101154
29 july, thu
thu2900:00+17sse3898100 0.9 1008353
03:00+17ssw4998100 1.5 1005646
06:00+18wsw5109699 0.9 1004633
09:00+18w51093100 1.1 1004868
12:00+22wnw712748 0.1 10051223
15:00+27wnw6103821 0.2 10042531
18:00+26w474869 0.0 10041056
21:00+21w3106673 0.0 1005220
30 july, fri
fri3000:00+19w41275100 0.1 1005479
03:00+18wsw3108196 0.1 1005366
06:00+18wsw278660 0.1 1005218
09:00+19wsw368060 0.2 1006427
12:00+26w58420 0.0 10051908
15:00+27w58355 0.0 10052416
18:00+25w58381 0.0 10061541
21:00+18wsw37589 0.0 1007111